| time (UTC) | temp F | wind direction | speed MPH | gust MPH | rain 1hr in | rain 24hr in | rain mn in | humidity % | barometer mb |
| 20260504174543 | 78 | 261 | 2.0 | 7.0 | 0.00 | 0.00 | 0.00 | 39 | 1009.6 |
| 20260504174040 | 77 | 192 | 3.0 | 5.0 | 0.00 | 0.00 | 0.00 | 34 | 1009.6 |
| 20260504173537 | 76 | 299 | 2.0 | 4.0 | 0.00 | 0.00 | 0.00 | 39 | 1009.8 |
| 20260504173034 | 77 | 222 | 3.0 | 5.0 | 0.00 | 0.00 | 0.00 | 40 | 1009.8 |
| 20260504172530 | 76 | 229 | 6.0 | 7.0 | 0.00 | 0.00 | 0.00 | 43 | 1009.8 |
| 20260504172027 | 75 | 183 | 5.0 | 6.0 | 0.00 | 0.00 | 0.00 | 41 | 1009.9 |
| 20260504171524 | 75 | 237 | 3.0 | 5.0 | 0.00 | 0.00 | 0.00 | 43 | 1010.0 |
| 20260504171021 | 75 | 234 | 5.0 | 5.0 | 0.00 | 0.00 | 0.00 | 43 | 1010.2 |
| 20260504170516 | 73 | 218 | 3.0 | 4.0 | 0.00 | 0.00 | 0.00 | 46 | 1010.2 |
| 20260504160437 | 69 | 230 | 4.0 | 4.0 | 0.00 | 0.00 | 0.00 | 50 | 1010.3 |
| 20260504150900 | 52 | 239 | 2.0 | 3.0 | 0.00 | 0.00 | 0.00 | 87 | 1010.7 |
| 20260504150358 | 51 | 236 | 2.0 | 4.0 | 0.00 | 0.00 | 0.00 | 89 | 1010.8 |
| 20260504141327 | 47 | 255 | 0.0 | 2.0 | 0.00 | 0.00 | 0.00 | 92 | 1010.6 |
| 20260504140824 | 47 | 254 | 3.0 | 3.0 | 0.00 | 0.00 | 0.00 | 92 | 1010.6 |
| 20260504140319 | 47 | 230 | 2.0 | 3.0 | 0.00 | 0.00 | 0.00 | 92 | 1010.5 |
| 20260504130748 | 47 | 256 | 0.0 | 2.0 | 0.00 | 0.00 | 0.00 | 92 | 1010.3 |
| 20260504130244 | 47 | 240 | 3.0 | 3.0 | 0.00 | 0.00 | 0.00 | 93 | 1010.2 |
| 20260504120208 | 48 | 186 | 2.0 | 4.0 | 0.00 | 0.00 | 0.00 | 91 | 1010.2 |
| 20260504110635 | 49 | 264 | 2.0 | 2.0 | 0.00 | 0.00 | 0.00 | 88 | 1010.4 |
| 20260504110131 | 49 | 276 | 3.0 | 4.0 | 0.00 | 0.00 | 0.00 | 89 | 1010.2 |
| 20260504100557 | 50 | 212 | 3.0 | 3.0 | 0.00 | 0.00 | 0.00 | 86 | 1010.3 |
| 20260504081950 | 54 | 190 | 2.0 | 6.0 | 0.00 | 0.00 | 0.00 | 78 | 1010.1 |
| 20260504081448 | 54 | 178 | 3.0 | 5.0 | 0.00 | 0.00 | 0.00 | 78 | 1010.2 |
| 20260504080943 | 55 | 230 | 2.0 | 3.0 | 0.00 | 0.00 | 0.00 | 77 | 1010.2 |
| 20260504080441 | 55 | 230 | 2.0 | 3.0 | 0.00 | 0.00 | 0.00 | 77 | 1010.2 |
| 20260504070408 | 58 | 212 | 3.0 | 5.0 | 0.00 | 0.00 | 0.00 | 69 | 1010.0 |
| 20260504050253 | 60 | 206 | 3.0 | 4.0 | 0.00 | 0.00 | 0.00 | 71 | 1010.4 |
| 20260504045750 | 60 | 198 | 3.0 | 3.0 | 0.00 | 0.00 | 0.00 | 71 | 1010.3 |
| 20260504045245 | 60 | 214 | 3.0 | 4.0 | 0.00 | 0.00 | 0.00 | 70 | 1010.4 |
| 20260504044743 | 61 | 180 | 3.0 | 5.0 | 0.00 | 0.00 | 0.00 | 67 | 1010.3 |
| 20260504044240 | 61 | 192 | 3.0 | 5.0 | 0.00 | 0.00 | 0.00 | 68 | 1010.1 |
| 20260504043737 | 61 | 212 | 4.0 | 5.0 | 0.00 | 0.00 | 0.00 | 67 | 1010.3 |
| 20260504043234 | 61 | 218 | 4.0 | 5.0 | 0.00 | 0.00 | 0.00 | 67 | 1010.3 |
| 20260504042732 | 61 | 203 | 3.0 | 4.0 | 0.00 | 0.00 | 0.00 | 66 | 1010.2 |
| 20260504042228 | 62 | 196 | 3.0 | 4.0 | 0.00 | 0.00 | 0.00 | 65 | 1010.2 |
| 20260504041724 | 62 | 220 | 4.0 | 4.0 | 0.00 | 0.00 | 0.00 | 64 | 1010.3 |
| 20260504041220 | 62 | 225 | 3.0 | 4.0 | 0.00 | 0.00 | 0.00 | 65 | 1010.1 |
| 20260504040716 | 62 | 228 | 3.0 | 4.0 | 0.00 | 0.00 | 0.00 | 65 | 1010.2 |
| 20260504040214 | 63 | 233 | 3.0 | 4.0 | 0.00 | 0.00 | 0.00 | 64 | 1010.2 |
| 20260504035710 | 63 | 219 | 3.0 | 4.0 | 0.00 | 0.00 | 0.00 | 65 | 1010.1 |
| 20260504035208 | 63 | 234 | 3.0 | 4.0 | 0.00 | 0.00 | 0.00 | 66 | 1010.1 |
| 20260504034705 | 63 | 241 | 3.0 | 3.0 | 0.00 | 0.00 | 0.00 | 67 | 1010.1 |
| 20260504034202 | 64 | 239 | 3.0 | 3.0 | 0.00 | 0.00 | 0.00 | 65 | 1009.8 |
| 20260504033659 | 64 | 241 | 2.0 | 2.0 | 0.00 | 0.00 | 0.00 | 66 | 1009.8 |
| 20260504033156 | 64 | 247 | 2.0 | 3.0 | 0.00 | 0.00 | 0.00 | 62 | 1010.0 |
| 20260504032653 | 65 | 258 | 3.0 | 4.0 | 0.00 | 0.00 | 0.00 | 62 | 1010.0 |
| 20260504032150 | 65 | 252 | 3.0 | 3.0 | 0.00 | 0.00 | 0.00 | 64 | 1009.8 |
| 20260504031647 | 66 | 238 | 3.0 | 3.0 | 0.00 | 0.00 | 0.00 | 62 | 1009.8 |
| 20260504031144 | 66 | 272 | 3.0 | 3.0 | 0.00 | 0.00 | 0.00 | 63 | 1009.6 |
| 20260504030640 | 67 | 251 | 3.0 | 4.0 | 0.00 | 0.00 | 0.00 | 64 | 1009.7 |
| 20260504030137 | 67 | 236 | 3.0 | 3.0 | 0.00 | 0.00 | 0.00 | 62 | 1009.8 |
| 20260504025634 | 68 | 251 | 3.0 | 3.0 | 0.00 | 0.00 | 0.00 | 60 | 1009.6 |
| 20260504025131 | 68 | 259 | 3.0 | 3.0 | 0.00 | 0.00 | 0.00 | 58 | 1009.6 |
| 20260504024628 | 69 | 265 | 2.0 | 3.0 | 0.00 | 0.00 | 0.00 | 57 | 1009.6 |
| 20260504024125 | 69 | 236 | 4.0 | 5.0 | 0.00 | 0.00 | 0.00 | 55 | 1009.6 |
| 20260504023621 | 69 | 229 | 3.0 | 3.0 | 0.00 | 0.00 | 0.00 | 53 | 1009.6 |
| 20260504023117 | 70 | 237 | 4.0 | 4.0 | 0.00 | 0.00 | 0.00 | 53 | 1009.6 |
| 20260504022614 | 70 | 249 | 4.0 | 4.0 | 0.00 | 0.00 | 0.00 | 53 | 1009.6 |
| 20260504022110 | 71 | 246 | 4.0 | 4.0 | 0.00 | 0.00 | 0.00 | 52 | 1009.6 |
| 20260504021608 | 71 | 243 | 5.0 | 5.0 | 0.00 | 0.00 | 0.00 | 49 | 1009.6 |
| 20260504021104 | 72 | 238 | 4.0 | 4.0 | 0.00 | 0.00 | 0.00 | 48 | 1009.7 |
| 20260504020601 | 72 | 253 | 4.0 | 5.0 | 0.00 | 0.00 | 0.00 | 48 | 1009.7 |
| 20260504020057 | 73 | 238 | 4.0 | 5.0 | 0.00 | 0.00 | 0.00 | 46 | 1009.7 |
| 20260504015554 | 74 | 246 | 4.0 | 6.0 | 0.00 | 0.00 | 0.00 | 45 | 1009.6 |
| 20260504015050 | 75 | 239 | 4.0 | 6.0 | 0.00 | 0.00 | 0.00 | 44 | 1009.6 |
| 20260504014546 | 77 | 256 | 5.0 | 6.0 | 0.00 | 0.00 | 0.00 | 43 | 1009.7 |
| 20260504014044 | 77 | 222 | 9.0 | 9.0 | 0.00 | 0.00 | 0.00 | 34 | 1009.7 |
| 20260504013541 | 78 | 292 | 3.0 | 7.0 | 0.00 | 0.00 | 0.00 | 43 | 1009.8 |
| 20260504013038 | 77 | 276 | 3.0 | 5.0 | 0.00 | 0.00 | 0.00 | 35 | 1009.6 |
| 20260504012536 | 77 | 256 | 3.0 | 4.0 | 0.00 | 0.00 | 0.00 | 43 | 1009.6 |
| 20260504012033 | 78 | 274 | 4.0 | 8.0 | 0.00 | 0.00 | 0.00 | 38 | 1009.7 |
| 20260504011530 | 79 | 275 | 3.0 | 7.0 | 0.00 | 0.00 | 0.00 | 41 | 1009.9 |
| 20260504011026 | 79 | 261 | 3.0 | 5.0 | 0.00 | 0.00 | 0.00 | 39 | 1009.9 |
| 20260504010522 | 79 | 266 | 3.0 | 6.0 | 0.00 | 0.00 | 0.00 | 37 | 1009.8 |
| 20260504010018 | 79 | 300 | 4.0 | 4.0 | 0.00 | 0.00 | 0.00 | 38 | 1010.0 |
| 20260504005515 | 80 | 249 | 3.0 | 4.0 | 0.00 | 0.00 | 0.00 | 36 | 1010.0 |
| 20260504005012 | 80 | 255 | 3.0 | 7.0 | 0.00 | 0.00 | 0.00 | 36 | 1009.9 |
| 20260504004510 | 80 | 262 | 4.0 | 5.0 | 0.00 | 0.00 | 0.00 | 33 | 1010.0 |
| 20260504004007 | 80 | 294 | 2.0 | 4.0 | 0.00 | 0.00 | 0.00 | 35 | 1010.0 |
| 20260504003503 | 81 | 241 | 5.0 | 5.0 | 0.00 | 0.00 | 0.00 | 35 | 1010.0 |
| 20260504003000 | 81 | 259 | 3.0 | 5.0 | 0.00 | 0.00 | 0.00 | 37 | 1010.2 |
| 20260504002456 | 81 | 273 | 3.0 | 3.0 | 0.00 | 0.00 | 0.00 | 35 | 1010.1 |
| 20260504001954 | 82 | 254 | 4.0 | 4.0 | 0.00 | 0.00 | 0.00 | 32 | 1010.1 |
| 20260504001451 | 82 | 276 | 4.0 | 6.0 | 0.00 | 0.00 | 0.00 | 31 | 1010.2 |
| 20260504000948 | 83 | 240 | 5.0 | 5.0 | 0.00 | 0.00 | 0.00 | 33 | 1010.2 |
| 20260504000445 | 83 | 212 | 3.0 | 3.0 | 0.00 | 0.00 | 0.00 | 32 | 1010.4 |
| 20260503235942 | 83 | 281 | 3.0 | 5.0 | 0.00 | 0.00 | 0.00 | 33 | 1010.3 |
| 20260503235440 | 85 | 242 | 3.0 | 4.0 | 0.00 | 0.00 | 0.00 | 32 | 1010.4 |
| 20260503234937 | 85 | 262 | 3.0 | 6.0 | 0.00 | 0.00 | 0.00 | 29 | 1010.4 |
| 20260503234435 | 85 | 283 | 4.0 | 5.0 | 0.00 | 0.00 | 0.00 | 32 | 1010.5 |
| 20260503233933 | 85 | 253 | 3.0 | 4.0 | 0.00 | 0.00 | 0.00 | 30 | 1010.4 |
| 20260503233429 | 85 | 221 | 2.0 | 5.0 | 0.00 | 0.00 | 0.00 | 31 | 1010.7 |
| 20260503232925 | 85 | 282 | 4.0 | 8.0 | 0.00 | 0.00 | 0.00 | 34 | 1010.3 |
| 20260503232422 | 85 | 275 | 4.0 | 5.0 | 0.00 | 0.00 | 0.00 | 34 | 1010.4 |
| 20260503231920 | 85 | 195 | 4.0 | 7.0 | 0.00 | 0.00 | 0.00 | 31 | 1010.6 |
| 20260503231417 | 85 | 301 | 4.0 | 5.0 | 0.00 | 0.00 | 0.00 | 34 | 1010.6 |
| 20260503230913 | 85 | 278 | 3.0 | 5.0 | 0.00 | 0.00 | 0.00 | 34 | 1010.8 |
| 20260503230410 | 85 | 304 | 4.0 | 7.0 | 0.00 | 0.00 | 0.00 | 31 | 1010.8 |
| 20260503225908 | 85 | 270 | 2.0 | 4.0 | 0.00 | 0.00 | 0.00 | 31 | 1010.9 |
| 20260503225404 | 85 | 263 | 4.0 | 5.0 | 0.00 | 0.00 | 0.00 | 31 | 1010.9 |
| 20260503224900 | 85 | 240 | 3.0 | 5.0 | 0.00 | 0.00 | 0.00 | 30 | 1011.1 |
| 20260503224357 | 86 | 228 | 4.0 | 7.0 | 0.00 | 0.00 | 0.00 | 30 | 1011.1 |
| 20260503223855 | 85 | 250 | 3.0 | 6.0 | 0.00 | 0.00 | 0.00 | 30 | 1011.2 |
| 20260503223353 | 85 | 180 | 3.0 | 9.0 | 0.00 | 0.00 | 0.00 | 28 | 1011.0 |
| 20260503222848 | 85 | 254 | 6.0 | 7.0 | 0.00 | 0.00 | 0.00 | 30 | 1011.3 |
| 20260503222347 | 85 | 303 | 3.0 | 5.0 | 0.00 | 0.00 | 0.00 | 30 | 1011.0 |
| 20260503221844 | 85 | 285 | 3.0 | 4.0 | 0.00 | 0.00 | 0.00 | 31 | 1011.3 |
| 20260503221343 | 84 | 208 | 2.0 | 7.0 | 0.00 | 0.00 | 0.00 | 27 | 1011.3 |
| 20260503220838 | 85 | 297 | 3.0 | 6.0 | 0.00 | 0.00 | 0.00 | 29 | 1011.4 |
| 20260503220336 | 85 | 232 | 4.0 | 5.0 | 0.00 | 0.00 | 0.00 | 27 | 1011.4 |
| 20260503215832 | 84 | 198 | 3.0 | 7.0 | 0.00 | 0.00 | 0.00 | 28 | 1011.5 |
| 20260503215329 | 84 | 280 | 3.0 | 9.0 | 0.00 | 0.00 | 0.00 | 31 | 1011.7 |
| 20260503214827 | 84 | 315 | 3.0 | 5.0 | 0.00 | 0.00 | 0.00 | 28 | 1011.5 |
| 20260503214324 | 84 | 215 | 2.0 | 7.0 | 0.00 | 0.00 | 0.00 | 28 | 1011.6 |
| 20260503213822 | 83 | 241 | 2.0 | 7.0 | 0.00 | 0.00 | 0.00 | 29 | 1011.8 |
| 20260503213319 | 83 | 281 | 0.0 | 11.0 | 0.00 | 0.00 | 0.00 | 30 | 1011.7 |
| 20260503212816 | 84 | 231 | 2.0 | 4.0 | 0.00 | 0.00 | 0.00 | 31 | 1011.8 |
| 20260503212314 | 83 | 215 | 1.0 | 3.0 | 0.00 | 0.00 | 0.00 | 28 | 1011.9 |
| 20260503211811 | 83 | 228 | 5.0 | 5.0 | 0.00 | 0.00 | 0.00 | 30 | 1011.8 |
| 20260503211308 | 82 | 157 | 3.0 | 5.0 | 0.00 | 0.00 | 0.00 | 29 | 1011.9 |
| 20260503210807 | 83 | 118 | 0.0 | 4.0 | 0.00 | 0.00 | 0.00 | 28 | 1011.9 |
| 20260503210306 | 82 | 261 | 5.0 | 7.0 | 0.00 | 0.00 | 0.00 | 29 | 1011.9 |
| 20260503205800 | 81 | 258 | 3.0 | 8.0 | 0.00 | 0.00 | 0.00 | 30 | 1012.1 |
| 20260503205257 | 81 | 265 | 5.0 | 5.0 | 0.00 | 0.00 | 0.00 | 30 | 1012.4 |
| 20260503204753 | 81 | 189 | 3.0 | 5.0 | 0.00 | 0.00 | 0.00 | 29 | 1012.4 |
| 20260503204251 | 82 | 227 | 2.0 | 12.0 | 0.00 | 0.00 | 0.00 | 29 | 1012.4 |
| 20260503203749 | 82 | 273 | 3.0 | 5.0 | 0.00 | 0.00 | 0.00 | 31 | 1012.6 |
| 20260503203246 | 81 | 201 | 4.0 | 5.0 | 0.00 | 0.00 | 0.00 | 30 | 1012.7 |
| 20260503202743 | 81 | 212 | 4.0 | 6.0 | 0.00 | 0.00 | 0.00 | 30 | 1012.6 |
| 20260503202241 | 81 | 236 | 2.0 | 8.0 | 0.00 | 0.00 | 0.00 | 30 | 1012.7 |
| 20260503201738 | 80 | 19 | 4.0 | 8.0 | 0.00 | 0.00 | 0.00 | 32 | 1012.7 |
| 20260503201235 | 80 | 263 | 6.0 | 10.0 | 0.00 | 0.00 | 0.00 | 33 | 1012.8 |
| 20260503200732 | 80 | 299 | 2.0 | 5.0 | 0.00 | 0.00 | 0.00 | 31 | 1012.9 |
| 20260503200228 | 81 | 172 | 4.0 | 6.0 | 0.00 | 0.00 | 0.00 | 31 | 1012.9 |
| 20260503195725 | 81 | 268 | 4.0 | 7.0 | 0.00 | 0.00 | 0.00 | 33 | 1013.0 |
| 20260503195222 | 80 | 225 | 3.0 | 8.0 | 0.00 | 0.00 | 0.00 | 31 | 1012.9 |
| 20260503194720 | 80 | 190 | 5.0 | 6.0 | 0.00 | 0.00 | 0.00 | 30 | 1012.9 |
| 20260503194215 | 80 | 169 | 3.0 | 8.0 | 0.00 | 0.00 | 0.00 | 32 | 1013.1 |
| 20260503193711 | 80 | 235 | 3.0 | 9.0 | 0.00 | 0.00 | 0.00 | 31 | 1013.3 |
| 20260503193207 | 80 | 232 | 3.0 | 5.0 | 0.00 | 0.00 | 0.00 | 35 | 1013.0 |
| 20260503191333 | 79 | 254 | 4.0 | 8.0 | 0.00 | 0.00 | 0.00 | 32 | 1013.3 |
| 20260503190829 | 79 | 254 | 4.0 | 8.0 | 0.00 | 0.00 | 0.00 | 32 | 1013.3 |
| 20260503190326 | 79 | 291 | 3.0 | 8.0 | 0.00 | 0.00 | 0.00 | 38 | 1013.1 |
| 20260503185823 | 79 | 277 | 4.0 | 5.0 | 0.00 | 0.00 | 0.00 | 35 | 1013.1 |
| 20260503185319 | 79 | 269 | 3.0 | 6.0 | 0.00 | 0.00 | 0.00 | 36 | 1013.3 |
| 20260503184814 | 79 | 288 | 3.0 | 3.0 | 0.00 | 0.00 | 0.00 | 34 | 1013.0 |
| 20260503184311 | 78 | 329 | 2.0 | 6.0 | 0.00 | 0.00 | 0.00 | 31 | 1013.1 |
| 20260503183806 | 78 | 281 | 1.0 | 4.0 | 0.00 | 0.00 | 0.00 | 33 | 1013.3 |
| 20260503183304 | 79 | 125 | 11.0 | 12.0 | 0.00 | 0.00 | 0.00 | 32 | 1013.3 |
| 20260503182801 | 79 | 218 | 3.0 | 5.0 | 0.00 | 0.00 | 0.00 | 32 | 1013.3 |
| 20260503182300 | 79 | 260 | 6.0 | 9.0 | 0.00 | 0.00 | 0.00 | 31 | 1013.3 |
| 20260503181756 | 78 | 188 | 4.0 | 5.0 | 0.00 | 0.00 | 0.00 | 33 | 1013.5 |
| 20260503181254 | 77 | 243 | 6.0 | 7.0 | 0.00 | 0.00 | 0.00 | 38 | 1013.6 |
| 20260503180750 | 77 | 272 | 2.0 | 5.0 | 0.00 | 0.00 | 0.00 | 33 | 1013.5 |
| 20260503180248 | 76 | 130 | 1.0 | 10.0 | 0.00 | 0.00 | 0.00 | 36 | 1013.8 |
| 20260503175744 | 76 | 263 | 2.0 | 5.0 | 0.00 | 0.00 | 0.00 | 35 | 1013.8 |
| 20260503175243 | 75 | 273 | 5.0 | 11.0 | 0.00 | 0.00 | 0.00 | 38 | 1013.8 |